Wind_Speed
56 56 57 57 57 58 58 58 58 59 59 59 59 59 59 59 59 60 60 59 60 60 60 60 60 59 58 58 58 59 60 61 62 63 63 63 63 62 60 58 57 57 58 58 60 61 61 58 54 52 53 52 51 51 52 53 54 54 54 54 53 53 53 53 53 51 51 52 53 53 53 53 54 54 55 56 57 58 59 60 61 62 62 63 64
56 57 57 57 57 58 58 59 59 59 59 59 60 60 60 60 61 61 61 60 61 62 62 62 62 61 61 61 61 62 63 64 64 65 64 62 60 58 56 56 55 56 57 59 60 61 60 57 54 52 51 50 49 50 51 53 54 55 56 56 55 55 54 55 55 54 53 53 54 55 55 55 55 56 56 57 58 59 60 61 62 63 64 65 65
58 58 58 58 59 59 60 60 60 60 60 60 61 61 61 61 61 62 62 62 62 62 62 62 62 63 63 64 64 65 65 65 64 63 62 60 58 56 55 56 56 57 58 59 60 60 59 57 54 52 51 50 49 50 52 53 55 56 57 57 58 57 56 56 57 57 56 56 56 56 57 57 57 57 57 58 59 60 61 62 64 65 66 67 68
61 61 61 61 62 62 63 63 64 64 63 63 63 62 62 62 62 62 62 62 62 62 62 63 63 64 65 65 66 65 65 64 63 61 60 58 57 56 56 56 56 56 57 58 59 59 58 56 54 53 52 51 51 52 54 55 56 57 58 59 59 59 59 59 59 59 59 59 59 59 59 59 59 59 60 60 61 62 63 65 67 68 69 70 70
63 63 64 64 64 64 64 65 65 65 65 65 65 65 64 63 63 63 62 62 62 63 63 64 64 65 65 65 65 64 63 62 61 60 59 58 57 56 56 55 55 55 55 57 58 59 58 56 55 54 53 53 53 54 55 56 57 58 58 59 60 61 61 61 61 61 62 62 61 61 61 61 62 62 63 63 64 65 66 68 69 70 71 71 72
64 65 65 65 65 65 65 65 65 65 65 65 65 65 64 64 64 64 63 63 63 64 64 64 64 64 64 63 62 61 61 60 60 59 58 58 57 56 55 55 54 54 54 55 57 58 58 57 56 56 55 55 56 57 57 58 58 59 59 60 61 62 63 63 63 64 64 65 64 64 64 65 65 65 65 66 66 67 69 70 71 73 73 74 73
65 66 66 65 65 65 65 64 64 64 63 64 64 64 64 64 64 64 64 64 63 63 63 63 63 63 62 61 60 60 59 59 59 58 58 57 57 56 55 55 55 55 56 56 57 58 58 59 58 58 58 58 58 58 59 59 60 60 61 61 62 63 64 65 66 67 67 68 68 67 67 67 67 67 67 68 69 70 72 73 75 75 75 73 71
65 65 64 64 64 63 63 63 62 62 62 62 63 63 63 63 62 62 62 62 62 62 62 62 62 62 60 59 59 59 58 58 58 58 58 58 58 57 57 57 57 57 58 59 60 61 61 61 61 61 61 61 61 61 62 63 63 64 64 65 66 66 67 67 68 69 69 70 70 69 68 68 68 68 69 70 71 73 74 75 75 74 72 71 71
63 63 62 62 62 61 61 61 61 61 61 62 62 61 61 60 59 59 60 60 61 62 62 62 62 61 60 59 59 58 58 57 58 59 59 59 59 59 59 59 60 61 62 62 63 64 65 66 66 66 66 66 66 67 68 69 69 69 69 69 70 70 70 70 70 70 70 70 70 69 69 69 69 70 71 72 72 73 74 74 73 72 70 70 70
62 61 61 61 61 61 61 61 61 61 60 60 59 58 58 57 58 59 60 61 61 62 62 62 61 61 60 60 59 58 58 58 59 60 61 62 63 63 64 64 65 66 67 67 68 69 70 70 70 71 71 72 73 73 73 74 74 74 73 73 73 72 72 72 72 72 72 71 70 70 71 72 72 72 72 72 73 74 74 73 70 69 68 68 70
62 62 62 62 62 62 62 61 60 59 58 57 56 56 56 57 58 59 60 60 61 61 61 61 61 61 60 60 60 60 60 60 62 64 66 68 68 69 70 71 72 73 73 74 74 75 76 76 76 76 76 76 77 77 76 76 76 75 74 74 73 73 73 73 73 73 73 72 72 72 73 74 73 74 74 76 76 73 70 67 66 67 68 69 70
64 64 64 64 63 63 62 60 59 59 58 57 57 57 58 59 60 60 61 61 61 61 61 61 61 61 62 62 62 63 64 66 69 71 72 74 75 76 76 77 77 78 78 79 79 80 81 81 80 80 79 79 79 78 77 77 76 75 75 74 74 74 74 74 74 74 74 74 74 74 75 75 75 76 76 74 70 67 65 65 66 67 68 69 69
65 65 64 64 63 63 62 61 61 60 60 60 60 61 61 62 62 63 63 64 64 64 64 64 64 65 66 67 68 69 71 73 75 77 78 79 80 80 80 81 81 81 81 81 82 82 82 81 80 80 79 78 78 77 76 76 76 75 75 75 74 74 73 74 74 74 74 74 74 74 74 74 73 71 69 66 64 65 66 67 66 67 68 69 69
64 64 63 63 62 62 62 62 62 62 63 63 64 64 65 65 66 66 66 66 66 67 68 68 69 71 72 73 73 74 75 78 79 80 81 82 82 83 83 83 82 82 82 81 80 80 79 78 77 77 76 76 76 75 75 74 74 74 74 73 72 72 72 72 72 72 73 73 73 72 72 70 67 66 66 66 66 67 67 67 68 69 70 70 70
63 63 63 63 63 63 63 63 64 64 65 66 67 68 69 69 70 70 70 71 72 72 74 75 75 76 77 78 78 78 79 81 82 83 83 84 84 84 84 83 82 81 80 79 77 76 75 74 74 73 73 72 71 71 70 70 70 70 69 69 69 70 70 70 70 70 71 72 73 72 71 69 68 68 68 67 66 66 66 67 68 69 69 69 70
65 65 65 65 65 66 66 66 66 67 68 69 70 72 73 74 75 76 76 76 77 78 79 80 80 81 82 83 83 83 83 84 85 85 85 85 84 84 83 82 81 79 77 75 74 72 71 71 70 69 68 67 67 66 65 65 66 66 66 66 67 67 68 69 70 71 72 72 72 72 71 70 70 68 66 64 63 62 62 63 65 66 67 67 67
67 67 68 68 69 70 70 70 71 72 73 74 74 75 77 78 79 80 81 81 82 83 84 84 85 86 86 87 87 87 86 86 86 86 85 85 84 83 82 81 79 77 75 73 72 70 69 69 68 67 67 66 65 63 63 63 64 65 66 66 67 67 69 70 71 72 72 71 71 71 70 68 65 63 61 60 60 61 62 65 66 65 65 65 63
70 70 71 72 73 74 75 76 76 77 78 79 79 80 81 82 83 84 84 85 85 86 87 88 88 89 89 89 89 89 88 87 86 86 85 84 83 82 81 80 78 76 74 73 72 71 70 69 68 67 66 64 64 64 64 64 65 66 67 67 68 69 70 71 71 70 70 69 69 67 64 62 60 60 61 62 64 66 66 65 64 63 63 62 58
74 74 75 76 78 79 80 81 81 82 83 83 84 85 85 86 87 87 87 88 88 89 89 90 90 89 89 89 89 89 88 87 86 86 85 84 83 82 81 80 79 77 76 74 73 72 71 69 65 64 63 64 65 67 67 67 67 67 67 68 70 71 72 71 70 69 68 67 66 65 64 63 63 64 66 67 68 66 63 61 61 62 60 57 53
78 79 80 81 83 84 85 86 86 87 87 87 87 88 88 88 89 89 90 90 90 90 90 90 89 89 88 88 88 88 87 87 86 86 86 85 85 84 84 83 82 80 79 78 76 74 71 68 64 62 64 65 66 67 66 65 65 66 67 69 70 70 71 70 69 68 67 66 67 68 68 68 68 68 68 66 63 60 59 60 59 57 53 51 50
83 84 85 86 88 89 89 90 90 90 91 91 91 91 91 91 91 91 91 90 90 89 89 89 89 88 88 88 88 87 87 87 86 86 86 86 86 86 86 85 84 83 82 80 78 76 73 68 63 62 64 67 67 66 64 63 65 68 69 70 69 68 69 68 67 67 68 69 68 68 68 67 67 65 62 59 58 58 58 56 53 50 49 49 49
87 88 89 90 91 91 92 92 93 93 94 94 94 94 94 94 94 93 93 92 92 91 90 90 90 90 89 89 89 89 89 89 88 88 88 87 87 86 85 85 84 84 83 81 79 78 75 70 66 65 67 69 69 67 65 66 68 70 69 68 66 65 65 65 64 65 65 65 64 63 63 62 60 57 56 57 58 56 53 50 48 47 47 48 49
89 90 90 91 92 92 92 93 93 94 94 95 95 95 95 95 95 95 95 95 94 94 93 93 92 92 91 91 91 91 91 91 90 89 88 87 86 85 84 82 81 81 80 79 79 78 76 73 71 69 69 70 71 70 70 69 69 68 67 65 63 62 62 62 60 59 58 58 58 58 57 55 54 55 56 56 54 50 48 47 47 47 48 49 51
89 89 90 90 91 91 91 91 92 92 93 94 94 95 95 95 95 95 96 96 96 96 95 94 94 93 93 92 91 91 91 90 89 88 87 86 85 83 82 80 78 77 77 76 76 76 75 74 72 70 69 70 71 71 70 69 68 68 66 64 63 61 59 56 53 53 54 54 54 54 53 54 55 55 54 51 48 48 47 47 47 48 49 50 52
89 89 89 89 90 90 91 91 91 92 93 93 94 95 95 95 95 96 96 97 97 96 96 95 95 94 94 93 91 91 90 89 88 87 86 85 83 82 81 79 77 75 73 72 72 71 72 72 72 70 69 69 69 68 68 68 68 67 65 64 62 58 54 52 51 52 53 53 53 53 54 54 53 51 49 47 47 47 46 46 47 48 49 51 52
90 90 90 90 91 91 92 92 92 93 93 94 95 95 96 96 96 96 96 97 97 96 96 95 95 94 93 92 91 90 89 88 87 86 85 84 83 82 80 78 75 73 70 69 67 67 68 69 69 68 69 69 68 67 66 65 65 63 62 61 59 55 53 52 52 51 52 53 53 53 51 50 49 47 46 46 45 45 45 46 47 48 50 51 52
90 90 91 91 91 91 92 92 93 93 94 95 95 95 96 96 96 96 96 96 96 95 94 93 93 92 91 91 90 89 88 87 86 85 85 83 82 80 77 74 72 69 67 66 65 65 65 65 65 65 66 66 65 63 62 61 60 57 55 54 53 52 51 51 50 50 51 51 51 49 48 47 46 45 44 43 43 44 45 46 47 48 49 50 50
89 90 90 91 91 91 92 92 93 93 94 94 95 95 95 95 95 94 93 93 93 92 91 91 90 90 90 89 89 88 86 85 84 82 80 78 76 73 70 68 66 65 64 63 63 62 61 60 59 59 59 59 59 59 58 55 52 49 48 49 49 49 48 48 48 49 49 48 47 46 45 44 42 41 41 41 42 43 44 45 46 47 48 48 49
89 89 90 91 91 92 92 92 93 93 94 93 93 93 93 93 92 91 90 91 91 91 90 89 89 89 88 87 86 85 82 80 78 76 74 71 68 64 62 60 59 58 57 55 53 52 52 51 50 51 51 52 53 52 49 46 44 45 47 47 47 46 46 46 46 46 45 44 44 42 40 39 38 39 40 41 42 42 43 44 45 45 46 47 49
90 90 91 91 92 92 92 92 92 92 92 92 91 91 90 90 90 90 89 89 90 90 89 88 87 86 85 83 82 80 77 75 73 71 68 64 60 57 56 55 53 51 48 46 45 46 46 46 46 47 49 49 47 44 43 42 43 44 45 45 44 44 44 44 43 43 42 40 39 37 36 36 37 39 40 41 41 42 42 43 44 45 47 48 50
91 92 92 93 93 93 92 92 91 91 91 91 90 90 89 88 89 90 90 89 88 88 87 85 84 83 81 79 77 76 74 71 69 66 63 58 54 52 51 49 46 44 42 42 42 43 44 45 46 47 47 45 43 42 42 42 42 42 43 43 42 41 41 41 41 39 38 36 35 35 36 37 38 38 39 40 41 41 42 44 46 47 49 50 51
93 93 93 93 93 92 92 91 91 90 90 90 91 91 90 89 88 88 89 88 86 85 83 82 80 79 77 76 74 73 71 69 66 63 59 53 49 49 48 44 41 40 39 39 41 41 42 45 46 45 43 43 43 43 42 42 42 42 42 40 39 39 39 38 37 36 35 35 36 36 37 37 37 38 39 40 41 43 44 46 47 48 50 51 52
94 93 93 92 92 91 91 90 90 90 90 91 91 92 91 91 89 87 86 85 83 81 80 79 77 76 75 74 72 70 69 66 63 59 55 49 47 49 47 42 38 38 38 40 42 42 41 42 44 43 43 45 45 44 43 43 43 41 40 40 40 39 38 36 35 35 35 35 35 36 36 36 37 38 39 41 42 44 45 46 48 49 50 52 54
93 93 93 92 92 92 91 92 92 92 92 92 92 91 90 90 88 86 84 82 80 78 77 76 76 74 73 71 69 67 65 63 60 57 52 47 46 48 47 43 41 41 41 43 44 44 43 42 42 43 46 48 47 44 44 44 42 41 40 40 39 38 36 35 34 34 34 34 34 35 36 37 38 40 41 42 43 44 45 47 48 50 52 54 55
93 93 93 93 93 93 93 93 93 93 92 92 91 90 89 88 86 85 83 81 79 77 75 74 74 73 71 69 67 64 62 59 57 55 51 47 46 48 48 46 45 45 45 45 46 46 45 43 42 44 48 49 47 45 44 43 40 38 37 36 35 34 34 33 33 33 33 34 35 36 37 38 39 41 41 42 43 45 46 48 50 52 54 55 57
94 94 94 94 95 95 95 94 94 93 92 90 89 88 87 85 84 83 81 79 77 75 73 72 71 70 69 67 64 62 58 55 54 52 49 46 46 48 49 49 48 47 47 46 46 45 44 43 42 45 48 49 46 43 40 38 36 34 33 33 32 32 32 32 32 33 34 35 36 38 39 40 40 41 42 43 44 46 48 50 52 54 55 57 59
94 94 94 95 95 94 94 93 92 91 89 87 86 84 83 82 81 79 78 76 74 72 70 69 68 67 65 64 61 58 55 52 51 49 47 45 45 46 48 48 47 46 45 45 44 43 42 41 43 46 46 44 40 37 35 34 33 32 31 31 30 31 31 32 33 34 36 37 38 39 40 41 41 42 43 45 47 49 51 52 54 56 58 60 61
94 94 94 93 93 92 91 90 88 87 85 83 81 80 78 77 75 74 73 72 71 69 67 65 64 63 61 60 57 54 52 49 48 46 44 43 43 42 42 42 42 41 41 41 40 40 39 40 41 41 39 36 34 32 31 31 30 29 29 29 30 31 32 33 35 36 38 39 40 40 41 41 42 43 45 47 49 51 53 54 56 58 60 62 64
92 91 91 90 89 88 87 85 83 81 79 78 76 74 73 72 71 70 69 69 67 65 63 61 60 58 57 55 52 50 48 45 43 43 42 41 39 37 37 38 38 38 37 36 35 35 36 35 35 34 32 31 30 29 28 27 27 27 28 29 31 32 34 35 37 38 39 40 40 41 42 43 44 45 47 49 51 53 55 56 58 60 62 64 67
88 87 86 85 84 82 81 80 78 76 74 73 71 69 68 67 67 66 66 65 64 61 59 57 56 54 52 50 48 46 43 41 40 40 40 38 37 36 36 37 36 34 32 31 31 31 31 30 29 29 29 28 28 27 26 27 27 28 30 31 33 34 36 37 38 39 40 41 41 42 43 44 46 48 49 51 53 55 57 58 60 63 65 67 70
85 83 81 80 78 77 76 74 72 71 70 68 67 65 64 64 63 63 62 61 59 57 55 53 51 49 47 46 45 42 39 37 37 37 37 36 35 36 35 33 32 30 29 28 27 27 27 27 27 27 27 26 26 27 27 28 29 30 32 33 35 36 37 38 39 40 41 41 42 43 45 46 48 49 51 53 55 57 59 60 63 65 67 70 73
81 79 77 75 74 72 71 69 68 67 65 64 63 62 61 61 60 59 58 57 55 52 50 47 45 44 43 42 39 35 33 32 33 34 35 35 34 33 31 30 29 28 27 26 26 26 27 27 27 26 26 27 27 28 28 29 30 32 33 35 36 37 38 39 40 40 41 42 43 45 46 48 49 51 53 55 56 58 60 63 65 68 70 73 75
77 76 74 72 71 69 67 65 64 63 62 61 60 59 59 58 57 56 55 53 50 47 44 42 40 39 37 35 31 29 28 30 32 34 35 34 32 30 29 29 29 29 27 26 26 27 27 27 27 27 28 28 29 29 30 31 32 34 35 37 38 39 39 40 40 41 42 44 45 46 47 49 51 53 54 56 58 60 62 65 68 70 73 75 77
74 73 71 70 68 66 64 62 61 60 59 58 57 56 56 54 53 52 51 49 46 43 40 39 38 35 31 28 27 28 30 33 35 36 35 32 30 29 29 30 31 32 30 28 28 28 29 29 29 29 30 30 31 31 32 33 34 36 37 38 39 40 40 41 41 42 44 45 46 48 49 50 52 54 55 57 59 62 65 68 70 73 75 76 77
72 70 68 67 65 63 61 60 59 58 57 56 55 54 52 51 50 48 46 44 41 39 37 37 37 33 29 27 28 30 33 35 36 35 34 32 30 30 30 31 32 33 33 32 32 32 32 32 32 32 32 33 33 34 34 35 37 38 39 40 40 40 41 42 43 44 45 46 48 49 50 51 52 54 56 59 62 65 67 70 73 74 75 75 74
68 66 65 64 62 60 59 58 57 56 55 54 53 51 50 48 47 44 40 37 36 35 34 34 33 31 28 29 32 34 36 36 34 32 31 31 30 31 31 32 33 35 35 36 36 35 34 34 35 35 35 35 35 36 37 38 39 39 40 40 41 41 42 43 44 45 46 48 49 50 51 52 54 57 59 62 65 67 70 72 74 74 73 71 68
65 63 62 61 60 58 57 56 55 54 53 52 51 50 47 45 43 38 35 33 34 35 34 33 31 29 30 33 36 36 35 33 31 30 29 29 30 31 32 34 36 37 37 37 37 37 37 37 37 37 37 37 38 39 39 39 40 40 40 41 41 42 43 45 46 46 47 48 49 51 52 54 57 60 62 65 67 70 72 73 73 71 68 65 63
61 60 59 58 57 56 55 54 53 52 51 50 49 47 46 42 38 34 33 33 34 34 34 32 30 29 31 34 35 33 32 30 29 28 28 29 30 31 33 35 37 38 38 38 38 38 38 37 37 37 38 39 40 40 41 40 41 41 41 42 43 44 45 46 47 48 48 49 51 53 55 58 60 63 65 67 69 71 72 71 68 66 63 60 59
58 57 56 56 55 55 53 52 51 50 49 47 46 45 42 38 33 31 33 34 33 33 32 32 31 30 31 31 31 31 30 30 29 28 28 29 30 31 33 34 36 38 38 39 39 38 37 36 36 37 39 40 41 41 41 41 41 42 43 44 45 46 46 47 48 49 50 51 53 56 58 61 63 65 67 69 70 70 69 66 63 60 58 57 58
55 55 54 54 53 52 51 50 49 47 46 44 43 41 39 34 30 30 32 33 33 31 31 32 32 31 30 30 31 31 31 30 29 29 29 30 31 32 33 34 35 36 37 38 38 37 36 36 37 39 41 41 42 41 41 41 42 43 44 45 46 47 47 48 49 50 52 54 56 59 61 64 66 68 69 69 69 67 64 60 57 56 56 56 57
53 52 52 51 50 50 48 47 45 43 42 40 39 38 36 32 32 33 32 32 31 30 30 31 32 32 32 32 32 32 32 31 31 31 31 32 33 33 33 33 34 35 36 36 36 36 37 38 40 41 42 42 41 41 41 42 43 44 45 46 47 47 48 49 50 52 54 57 59 62 64 66 68 69 68 67 65 62 58 56 54 54 55 56 57
Wind_Direction
275 276 277 277 278 279 279 280 281 282 283 284 285 286 286 287 288 288 289 290 290 290 291 291 291 291 291 292 292 292 292 292 292 293 293 294 294 294 295 295 295 296 296 297 298 298 298 297 296 294 293 293 294 295 297 298 299 299 298 298 296 295 294 293 295 295 294 293 293 292 291 290 290 291 291 293 293 293 293 293 295 296 296 297 297
277 277 278 279 279 280 281 282 283 283 284 285 285 286 286 287 288 288 289 289 290 290 291 291 291 292 292 292 292 292 292 292 293 293 294 295 295 295 295 295 296 296 297 297 297 296 295 294 294 292 292 293 294 296 298 298 299 300 300 299 298 297 295 294 295 295 294 293 292 292 291 291 291 291 292 293 293 293 293 294 295 296 296 297 297
278 279 280 281 281 282 282 283 283 284 284 284 285 285 286 287 287 288 288 289 289 289 290 290 291 291 292 292 292 292 292 293 294 295 295 295 295 295 295 296 297 297 298 298 297 295 294 293 292 292 292 293 295 297 298 298 299 300 300 300 299 298 296 295 295 295 294 294 293 292 291 291 292 292 293 293 293 294 294 295 296 296 297 298 297
279 280 281 281 282 282 283 283 284 284 284 285 285 286 286 286 287 287 287 287 288 288 289 289 289 289 290 290 291 292 293 293 294 295 295 294 294 295 295 296 297 298 298 298 297 295 293 292 292 292 293 294 296 297 297 298 298 299 299 300 300 298 296 295 294 294 293 293 293 292 292 292 292 293 293 293 294 295 295 296 297 298 298 298 296
279 280 280 281 282 282 283 284 284 285 285 285 286 286 286 286 286 286 286 287 287 287 288 288 288 289 289 290 291 291 292 293 293 293 293 293 293 293 294 295 296 297 297 297 296 294 293 292 291 292 292 293 294 295 295 296 296 296 297 298 298 297 296 295 293 292 292 292 292 292 291 292 292 292 293 294 295 296 296 297 297 297 297 295 294
279 280 281 281 282 283 284 284 285 285 285 286 286 286 287 287 287 287 287 287 288 288 288 289 289 289 290 290 290 290 290 291 291 291 291 292 292 292 293 294 295 296 296 296 295 294 293 292 291 291 291 292 292 293 294 294 295 295 295 296 296 296 296 295 293 292 291 291 291 291 291 292 292 293 294 295 295 296 296 297 296 296 295 294 294
281 281 282 283 283 284 284 285 285 285 286 286 286 286 286 287 287 287 287 288 288 288 288 289 289 289 289 289 289 288 288 289 289 290 290 290 290 290 291 293 294 296 296 296 295 294 293 292 291 291 290 291 291 292 293 293 294 294 294 294 294 294 294 294 293 292 291 291 292 292 292 292 293 293 294 295 295 295 296 296 296 295 294 293 292
281 282 282 283 283 284 284 285 285 285 285 285 285 285 285 285 285 285 285 286 286 286 287 287 288 288 287 287 287 287 287 288 289 289 288 288 288 289 290 292 293 294 295 295 295 294 293 292 291 290 290 291 291 292 292 292 293 293 293 293 293 293 293 293 292 291 291 291 291 292 292 292 293 293 294 294 295 296 296 296 295 293 292 291 290
281 281 282 282 282 283 283 284 284 285 285 285 285 285 284 284 284 284 284 284 285 286 286 286 287 287 287 287 288 288 289 289 289 289 288 287 288 288 290 291 292 292 293 293 293 292 291 291 290 290 289 289 290 290 291 291 292 293 293 293 293 292 292 292 291 290 290 290 291 291 292 292 293 294 294 295 295 296 295 294 292 292 293 293 292
282 282 282 282 282 283 283 284 284 284 285 284 284 283 283 283 284 284 284 285 285 286 286 286 286 286 287 287 288 288 289 290 290 289 289 289 289 290 290 291 291 291 291 291 291 290 290 289 289 288 288 288 289 289 289 290 291 291 292 292 292 291 291 290 290 289 289 289 290 291 292 293 293 294 294 294 294 294 292 292 293 295 296 294 291
285 284 284 284 284 284 285 285 285 285 284 284 283 282 283 284 284 284 284 284 284 285 285 285 285 286 286 286 287 287 288 289 290 290 290 290 290 290 290 290 291 291 291 290 290 289 288 288 287 287 287 287 287 288 288 289 289 290 290 290 290 289 289 289 288 288 289 290 291 292 292 293 293 293 292 292 292 292 292 294 296 295 292 289 288
286 287 287 286 286 286 286 286 286 286 285 284 284 283 284 284 284 284 283 283 283 283 283 283 284 285 285 286 286 287 287 288 288 289 289 289 289 289 289 290 290 290 290 289 289 288 287 287 287 286 286 286 286 287 287 287 287 287 288 288 287 287 287 287 288 288 289 289 290 290 291 291 291 291 291 292 292 293 295 296 294 290 287 286 287
287 287 288 288 288 288 288 288 288 288 287 286 286 286 285 285 285 285 284 284 284 283 283 283 283 284 284 285 285 286 286 287 287 287 288 288 288 289 289 289 290 290 289 288 288 287 287 287 287 287 286 286 285 285 285 285 285 286 286 286 286 286 286 287 287 288 288 288 288 288 289 289 290 291 292 294 294 294 295 293 288 285 285 286 287
286 286 287 287 287 288 288 288 288 287 287 287 287 286 286 286 286 285 285 285 285 284 284 285 285 285 285 285 286 286 287 287 287 288 288 288 289 289 289 289 289 289 289 288 288 288 287 287 287 286 286 285 284 284 284 285 285 285 285 285 285 286 286 286 286 286 287 287 288 290 291 291 292 292 293 294 293 292 289 286 283 284 285 287 289
285 285 285 285 285 285 285 285 285 285 285 285 285 286 286 286 286 286 286 286 286 287 287 287 288 288 288 288 289 289 289 289 289 289 289 289 289 289 289 289 289 289 289 288 288 288 287 287 286 286 286 285 285 285 285 285 285 284 285 285 286 286 285 285 285 286 286 288 289 291 291 291 291 291 291 291 289 287 286 285 285 287 288 290 291
285 285 285 284 285 285 285 285 285 285 285 286 286 286 287 287 288 288 288 289 289 289 290 290 290 290 290 290 291 291 291 290 290 290 290 290 290 290 290 289 289 289 289 288 288 287 287 286 286 286 286 286 286 285 284 284 285 284 284 284 283 284 284 285 286 286 287 288 288 289 290 290 289 289 289 288 287 286 287 288 289 289 291 292 292
285 285 285 285 286 286 286 286 287 287 287 287 288 288 288 289 289 289 290 290 290 291 291 291 292 291 291 291 291 291 291 290 290 290 289 289 289 289 289 289 289 288 288 287 287 286 286 285 285 285 286 286 285 283 282 282 282 282 281 282 283 284 285 286 286 286 286 287 287 288 289 289 288 287 286 285 285 285 287 288 289 290 292 292 292
286 286 286 287 287 287 287 287 288 288 288 288 289 289 289 289 289 290 290 290 291 291 291 291 291 291 291 291 291 290 290 290 289 289 289 288 288 288 289 288 288 288 287 287 286 286 286 285 286 287 287 285 283 281 281 281 281 281 282 284 285 286 286 286 287 287 286 286 286 287 288 286 284 283 283 284 285 287 289 290 291 292 292 292 292
287 287 287 287 287 288 288 288 288 289 289 289 289 290 290 290 290 290 290 291 291 291 291 290 290 290 290 290 290 290 290 290 290 289 289 289 289 289 289 289 289 288 288 287 287 286 286 287 288 288 286 282 281 280 280 280 281 282 284 285 286 287 287 287 287 286 286 286 286 287 286 284 283 284 285 287 288 290 291 292 292 291 291 291 292
287 287 288 288 288 288 288 288 288 288 288 289 289 289 289 289 289 289 290 290 290 290 290 289 289 289 289 289 290 290 290 290 290 290 290 290 290 290 290 290 290 289 289 289 288 288 288 289 289 286 283 281 280 280 280 279 281 283 285 287 287 288 287 287 286 286 286 286 286 286 285 285 285 286 287 289 290 291 292 291 289 289 290 291 291
287 287 288 288 288 288 288 288 288 288 288 288 288 288 288 288 288 288 288 288 288 288 288 288 289 289 289 289 289 289 289 289 289 289 289 290 290 290 290 290 289 289 289 289 289 289 288 288 286 282 280 280 280 280 279 280 284 287 288 287 287 285 284 284 285 286 286 285 285 285 284 284 285 286 288 290 290 290 288 287 287 288 290 291 291
286 287 287 287 287 287 287 288 288 288 288 288 288 288 288 288 288 288 288 288 288 288 288 288 289 289 289 289 289 289 289 289 289 289 289 289 288 288 288 288 288 288 288 288 288 287 287 286 283 280 278 278 278 279 280 283 287 288 287 286 284 282 282 282 284 285 285 285 285 285 284 285 286 287 288 289 287 286 286 286 287 289 290 291 293
285 285 285 285 286 286 286 286 287 287 287 287 288 288 288 288 289 289 289 289 289 289 289 289 289 289 289 289 290 290 290 290 289 289 289 289 288 288 288 287 287 287 286 286 285 285 285 284 282 280 278 276 277 279 281 284 286 286 285 284 282 281 282 283 284 284 284 285 285 285 286 286 286 286 286 285 284 284 285 286 288 290 292 294 296
283 284 284 284 284 285 285 285 286 286 287 287 287 288 288 288 288 289 289 289 289 289 289 289 290 290 290 290 290 290 290 290 290 289 289 289 289 288 288 288 287 287 286 285 284 284 283 283 282 280 278 276 277 278 280 282 283 283 283 282 279 279 282 283 282 283 283 283 283 284 284 284 284 283 282 282 282 283 285 287 290 293 295 296 297
282 282 283 283 283 284 284 285 286 286 287 287 288 288 288 288 289 289 290 290 290 290 291 291 291 291 291 291 290 290 290 291 290 290 290 290 289 289 288 288 287 287 286 285 284 283 282 281 280 279 278 278 279 280 281 281 281 281 281 279 276 277 280 280 280 281 282 282 282 282 282 281 280 279 279 280 282 285 287 291 293 295 296 297 297
281 282 282 283 283 284 285 285 286 287 287 288 288 289 289 289 289 290 290 291 291 291 292 292 292 292 292 292 291 291 291 291 291 291 290 290 289 289 288 287 286 285 284 283 281 280 279 279 279 278 278 279 281 282 283 282 281 281 279 276 273 274 277 279 280 281 281 280 280 279 278 277 277 277 279 282 285 289 291 294 295 296 296 297 298
281 282 282 283 284 285 285 286 286 287 288 288 289 290 290 290 290 291 291 291 291 291 291 292 292 292 292 292 292 292 292 292 291 291 290 290 289 288 288 287 285 283 281 279 278 278 278 278 279 278 278 280 282 283 284 283 282 279 275 272 271 273 276 279 281 279 277 277 276 275 274 275 277 280 283 286 289 291 293 294 296 296 297 298 299
282 282 283 284 284 285 286 286 287 287 288 288 289 290 290 290 290 291 291 291 291 291 291 292 292 292 292 292 292 292 292 292 292 292 291 291 290 290 288 287 284 282 279 278 278 278 278 278 279 279 279 280 281 281 281 279 276 273 272 273 274 276 277 277 276 274 273 273 273 273 274 276 279 282 284 287 290 292 294 295 297 297 298 299 300
282 283 284 284 285 286 286 287 288 288 288 288 289 289 289 289 290 290 290 291 291 291 292 292 292 292 293 293 293 293 293 293 293 293 293 293 293 291 289 286 283 281 279 279 279 279 278 278 277 277 278 278 278 277 276 275 274 274 276 276 276 276 275 273 272 272 272 271 272 273 275 278 281 284 287 289 291 293 295 296 297 298 299 300 302
284 285 285 286 286 287 287 287 288 288 288 288 288 288 288 289 290 290 290 290 291 292 292 292 292 292 293 293 293 293 294 294 294 294 294 294 294 293 289 286 283 280 278 278 278 278 277 276 275 275 276 276 277 277 277 276 277 277 276 275 274 273 272 271 271 271 270 271 273 276 279 282 286 288 290 291 293 294 295 297 298 300 301 302 303
285 286 286 287 287 287 287 288 288 288 288 288 289 289 289 289 290 290 291 291 291 291 292 292 292 292 292 293 293 293 294 294 294 294 294 294 293 290 287 283 280 277 276 276 277 277 277 276 276 276 274 274 277 279 278 276 276 274 272 271 270 269 268 268 268 269 270 273 277 280 284 286 288 290 291 292 293 295 298 300 301 302 302 301 300
286 287 287 287 287 288 288 288 288 288 289 289 289 289 289 289 289 290 290 291 291 291 291 292 292 292 292 292 292 293 293 293 293 293 293 292 289 284 279 274 273 275 278 278 279 279 279 279 278 276 275 277 280 279 276 273 272 270 268 267 266 266 265 266 267 269 273 277 280 283 286 288 290 291 292 294 297 299 300 301 301 300 299 299 298
287 287 287 287 287 288 288 288 288 288 288 289 289 289 289 290 290 290 290 290 291 291 291 291 291 291 291 292 292 292 292 293 292 291 290 287 283 278 274 270 270 274 276 275 275 276 279 281 282 280 281 283 281 276 271 269 267 265 263 264 265 266 266 267 269 272 276 279 283 285 288 290 292 294 296 297 299 299 299 298 298 297 297 297 297
287 287 288 288 288 288 288 288 288 288 288 288 289 289 289 290 290 290 290 290 290 290 290 290 290 290 291 291 291 291 291 291 291 289 287 283 279 275 272 268 268 269 269 269 272 274 276 279 282 284 285 282 276 270 266 264 262 260 260 262 264 265 266 269 272 276 279 283 286 289 291 293 295 296 297 297 297 296 296 295 295 295 295 296 297
287 287 288 288 288 288 288 288 288 288 289 289 289 290 290 290 290 290 290 290 290 289 289 289 289 290 290 290 290 290 290 289 288 287 284 281 277 273 270 268 268 269 269 271 272 274 276 278 281 284 282 275 268 264 262 260 258 257 259 261 263 265 269 272 276 280 283 286 289 291 293 294 295 295 295 294 293 293 293 294 294 295 296 297 298
287 287 287 287 288 288 288 288 289 289 289 289 290 290 290 290 290 290 290 289 289 289 289 288 288 288 288 288 289 289 288 287 285 283 281 278 275 272 270 269 270 271 271 272 273 274 276 278 280 281 277 270 263 260 258 256 256 258 260 263 266 269 273 277 281 284 287 290 291 293 294 294 293 293 292 292 292 292 293 294 295 296 297 298 299
286 287 287 287 288 288 288 289 289 289 290 290 290 289 289 289 289 289 289 289 289 288 288 287 287 287 287 287 287 287 286 285 283 280 278 277 275 272 270 271 272 273 273 274 274 275 276 278 278 276 270 263 257 254 254 255 259 263 265 267 271 275 278 282 285 288 290 291 292 292 292 292 291 291 291 292 292 293 294 295 297 298 298 299 300
286 287 287 287 288 288 288 288 289 289 289 289 289 288 288 288 288 288 288 288 288 288 287 286 286 286 285 285 285 285 284 283 281 278 276 276 274 272 272 273 275 275 274 273 273 274 274 273 270 265 259 254 253 254 257 261 264 267 270 274 278 282 285 287 288 289 290 291 291 291 291 291 291 291 291 292 293 294 296 297 298 299 300 301 302
286 287 287 287 288 288 288 288 288 288 288 288 288 287 287 287 287 287 286 286 287 287 286 285 285 284 284 284 284 283 283 281 278 275 275 275 274 275 277 279 279 278 276 274 272 270 267 262 258 254 253 256 259 263 265 268 270 274 278 282 285 287 289 289 289 289 289 289 290 290 291 291 291 291 292 293 294 296 297 298 299 300 301 302 303
286 287 287 288 288 288 288 288 288 287 287 287 287 286 286 286 285 285 285 285 285 285 284 284 283 282 282 282 282 283 282 279 275 274 274 275 276 277 278 279 280 280 277 271 265 260 256 254 255 257 260 264 267 269 272 275 277 281 284 286 288 289 289 288 288 288 288 289 290 290 291 291 292 292 294 295 296 297 298 300 300 301 302 303 304
287 287 287 288 288 288 288 288 287 287 286 286 286 285 285 284 284 284 284 284 284 284 283 282 281 280 280 281 281 280 278 275 274 274 275 276 276 276 276 277 279 276 269 260 256 255 257 260 264 267 268 270 272 274 277 279 281 284 286 287 288 289 288 287 287 287 288 289 290 291 292 293 294 295 296 297 298 299 300 301 301 302 304 305 306
287 288 288 288 288 288 288 287 287 286 286 285 285 284 283 283 283 283 283 283 282 282 282 281 280 280 280 280 278 274 272 272 275 277 277 276 275 274 273 274 273 264 255 253 257 261 264 268 270 271 272 274 275 277 279 282 284 286 287 289 289 289 288 287 287 288 289 290 292 293 294 295 296 297 298 299 299 300 301 302 303 304 306 307 307
288 288 288 288 288 288 287 287 286 285 284 284 283 283 282 282 282 282 282 282 281 280 280 279 279 278 277 275 271 267 268 274 277 279 277 274 272 271 271 270 263 253 248 254 263 266 268 270 271 272 274 276 277 280 283 285 287 288 289 290 290 289 288 288 288 289 291 293 294 295 296 297 298 298 298 299 300 301 302 304 305 306 307 307 307
288 289 288 288 288 287 287 286 285 284 283 283 282 282 281 281 281 280 280 280 279 276 274 274 275 274 273 270 268 270 274 277 279 278 275 272 270 270 269 267 259 249 246 254 265 269 270 272 274 275 277 280 282 284 286 288 289 290 291 291 290 289 289 289 291 292 293 294 295 296 297 297 297 297 298 300 301 303 304 306 307 307 308 307 307
288 288 288 287 287 286 286 285 285 284 284 283 282 281 281 280 280 279 278 277 276 273 272 272 272 269 268 269 273 278 280 279 277 276 274 272 272 271 269 266 261 252 250 256 265 269 271 274 276 278 280 282 285 287 289 291 291 292 291 291 290 290 291 291 292 293 293 294 294 295 295 295 297 298 300 302 303 305 306 307 307 308 307 307 307
288 287 286 286 285 285 285 285 284 284 284 283 282 281 280 279 278 277 275 272 271 271 272 270 265 263 266 273 278 282 282 278 275 274 274 275 276 274 271 267 262 257 255 260 266 268 270 273 276 279 282 284 287 289 291 291 292 291 291 291 290 290 290 291 291 292 292 293 293 294 295 297 299 301 302 303 304 306 307 307 308 307 307 307 306
286 285 284 284 284 284 284 284 283 283 282 281 281 280 278 277 276 273 268 264 265 267 267 262 257 259 268 275 278 280 280 278 276 275 277 277 277 276 274 269 264 261 260 264 267 269 271 273 276 280 283 285 288 290 291 291 291 291 291 290 290 289 290 290 290 291 292 293 294 296 298 299 301 302 303 304 305 306 307 308 307 307 307 306 306
284 283 283 283 283 283 283 282 282 281 280 279 278 277 276 275 273 266 260 260 262 263 261 258 257 262 269 273 275 277 279 280 278 278 278 278 278 277 275 272 268 266 266 268 271 272 273 275 278 281 284 286 288 290 291 291 291 291 290 290 290 289 290 290 291 292 293 295 296 298 299 300 301 302 304 305 306 307 307 307 307 306 305 305 305
283 283 282 282 282 282 282 282 281 280 279 278 276 274 273 272 266 259 258 260 260 258 255 255 258 264 269 272 274 277 279 280 280 280 279 278 278 278 278 277 275 273 273 274 275 275 277 279 282 284 286 287 289 290 290 290 290 290 290 289 289 289 290 291 292 293 295 296 297 298 300 301 302 303 304 305 306 307 307 306 305 305 304 305 306
283 283 282 281 281 281 281 281 280 279 278 276 274 272 271 264 254 252 257 260 258 255 253 253 256 262 268 271 273 276 279 280 281 281 280 280 281 281 280 280 279 278 277 277 278 279 281 284 285 286 287 288 288 289 289 289 289 289 288 288 288 289 290 292 293 294 295 296 297 299 300 301 302 304 305 306 307 306 306 304 304 304 304 306 307
283 282 281 281 280 280 280 280 279 278 276 275 273 271 268 258 247 245 253 259 258 256 255 254 256 262 268 271 273 275 278 280 281 282 282 282 283 283 282 280 279 279 279 280 280 282 283 285 285 286 286 287 287 288 288 288 287 287 287 287 288 290 291 292 293 294 296 297 298 300 301 302 303 304 305 306 306 305 304 303 303 304 306 307 308
Height
5796 5794 5793 5792 5790 5789 5787 5787 5786 5785 5783 5782 5781 5779 5777 5775 5774 5773 5771 5769 5766 5765 5763 5761 5759 5758 5756 5754 5752 5749 5747 5745 5742 5740 5739 5737 5735 5732 5730 5727 5725 5722 5719 5717 5714 5711 5709 5708 5706 5703 5700 5698 5696 5694 5691 5689 5686 5684 5681 5679 5676 5673 5670 5666 5665 5666 5664 5662 5660 5659 5656 5654 5652 5649 5646 5643 5640 5638 5635 5632 5630 5627 5624 5622 5619
5789 5788 5786 5785 5784 5782 5781 5780 5780 5779 5777 5775 5774 5772 5770 5769 5767 5766 5765 5762 5759 5758 5756 5754 5752 5750 5749 5747 5745 5742 5740 5738 5735 5733 5731 5729 5727 5725 5722 5720 5718 5716 5713 5711 5708 5704 5703 5702 5700 5697 5693 5692 5690 5688 5686 5683 5680 5678 5676 5673 5671 5668 5664 5661 5659 5658 5657 5656 5654 5652 5650 5648 5645 5643 5640 5637 5634 5631 5628 5625 5622 5619 5616 5614 5611
5782 5781 5780 5778 5777 5776 5775 5774 5773 5772 5771 5769 5768 5766 5764 5762 5760 5759 5757 5755 5752 5750 5748 5747 5745 5743 5742 5740 5737 5735 5732 5730 5727 5725 5723 5721 5719 5717 5715 5713 5711 5709 5707 5704 5701 5698 5696 5695 5693 5690 5687 5686 5684 5682 5679 5677 5674 5672 5670 5667 5665 5662 5659 5655 5653 5651 5650 5649 5647 5645 5643 5640 5638 5636 5633 5630 5627 5623 5620 5617 5614 5611 5608 5605 5602
5775 5774 5773 5772 5771 5770 5768 5767 5766 5765 5764 5762 5760 5758 5757 5755 5753 5751 5750 5748 5746 5743 5741 5740 5738 5736 5734 5732 5730 5727 5725 5722 5720 5718 5716 5713 5712 5710 5708 5706 5705 5703 5700 5698 5695 5692 5690 5689 5686 5683 5681 5679 5678 5675 5672 5670 5668 5666 5664 5661 5659 5656 5653 5650 5647 5645 5643 5641 5640 5638 5636 5633 5631 5629 5626 5623 5620 5616 5613 5609 5606 5603 5600 5597 5593
5769 5768 5767 5765 5764 5763 5761 5760 5759 5757 5756 5754 5752 5751 5749 5748 5746 5744 5742 5741 5739 5736 5734 5732 5730 5729 5727 5725 5722 5720 5718 5715 5713 5711 5709 5706 5705 5704 5702 5700 5698 5697 5695 5692 5689 5687 5684 5683 5680 5677 5674 5673 5671 5668 5666 5663 5661 5659 5657 5655 5652 5650 5647 5644 5641 5638 5636 5634 5633 5631 5629 5626 5624 5621 5619 5616 5612 5608 5604 5601 5598 5594 5591 5588 5585
5762 5760 5759 5758 5757 5755 5754 5753 5752 5750 5748 5746 5744 5743 5741 5739 5738 5736 5734 5733 5731 5728 5726 5724 5722 5721 5720 5718 5716 5714 5711 5709 5707 5705 5702 5700 5698 5697 5695 5694 5692 5691 5689 5686 5684 5681 5679 5676 5674 5671 5668 5666 5664 5661 5658 5656 5654 5652 5650 5648 5645 5643 5640 5638 5635 5631 5629 5626 5625 5623 5621 5619 5616 5614 5611 5607 5604 5601 5597 5592 5589 5586 5582 5578 5575
5754 5753 5752 5751 5749 5748 5746 5745 5744 5743 5741 5739 5737 5735 5734 5732 5730 5728 5726 5724 5723 5721 5719 5717 5715 5714 5712 5711 5709 5707 5704 5702 5700 5698 5695 5693 5692 5690 5689 5687 5686 5684 5682 5680 5677 5675 5672 5670 5667 5665 5662 5659 5657 5654 5651 5649 5647 5645 5643 5640 5638 5636 5633 5630 5627 5624 5621 5618 5616 5614 5612 5610 5608 5605 5602 5599 5595 5592 5588 5584 5580 5576 5573 5569 5566
5747 5745 5744 5743 5742 5741 5739 5738 5737 5735 5733 5732 5730 5728 5727 5725 5723 5721 5719 5717 5716 5714 5713 5711 5709 5707 5705 5703 5702 5699 5698 5696 5693 5691 5688 5686 5685 5684 5682 5680 5679 5677 5675 5673 5670 5668 5665 5663 5660 5658 5655 5652 5650 5647 5644 5642 5639 5637 5635 5632 5630 5628 5625 5622 5619 5616 5613 5610 5607 5605 5603 5601 5599 5596 5593 5590 5586 5583 5579 5575 5571 5568 5564 5560 5558
5739 5738 5737 5736 5735 5734 5732 5731 5729 5728 5726 5724 5723 5721 5719 5718 5716 5714 5712 5711 5709 5708 5706 5705 5703 5700 5698 5696 5694 5692 5690 5689 5686 5683 5681 5679 5678 5676 5675 5673 5672 5670 5668 5666 5663 5661 5658 5655 5653 5650 5647 5645 5642 5639 5636 5633 5631 5629 5626 5623 5621 5619 5616 5614 5611 5607 5604 5601 5599 5596 5593 5591 5590 5587 5584 5581 5577 5573 5570 5567 5563 5560 5556 5552 5549
5731 5730 5729 5728 5727 5726 5725 5723 5722 5720 5718 5717 5715 5714 5712 5711 5709 5707 5705 5704 5702 5700 5699 5697 5695 5693 5691 5689 5687 5686 5684 5682 5679 5676 5674 5672 5670 5669 5667 5666 5664 5662 5660 5658 5656 5653 5649 5647 5644 5642 5639 5636 5633 5631 5628 5625 5622 5620 5617 5614 5611 5609 5607 5604 5602 5599 5596 5593 5590 5588 5585 5583 5581 5578 5575 5572 5569 5565 5561 5558 5554 5551 5547 5544 5541
5722 5721 5720 5719 5718 5717 5716 5715 5714 5712 5711 5709 5708 5707 5705 5704 5702 5700 5699 5697 5695 5694 5692 5690 5688 5685 5684 5682 5681 5679 5677 5675 5672 5669 5666 5664 5662 5661 5659 5657 5655 5653 5651 5649 5647 5644 5640 5638 5635 5633 5630 5627 5624 5621 5618 5615 5613 5610 5608 5605 5602 5600 5597 5595 5592 5590 5587 5584 5582 5579 5577 5574 5572 5569 5566 5564 5560 5557 5553 5550 5546 5543 5539 5536 5533
5713 5711 5710 5709 5708 5707 5706 5706 5704 5703 5702 5701 5700 5699 5697 5696 5694 5692 5691 5689 5688 5687 5684 5683 5681 5679 5676 5675 5674 5672 5670 5667 5664 5661 5658 5656 5653 5652 5650 5648 5646 5644 5642 5639 5637 5634 5630 5628 5625 5623 5620 5617 5614 5611 5608 5605 5603 5600 5598 5596 5593 5591 5588 5586 5583 5581 5578 5576 5573 5571 5568 5566 5563 5560 5558 5555 5551 5548 5545 5542 5539 5535 5531 5528 5526
5704 5702 5701 5699 5698 5697 5696 5696 5695 5694 5693 5692 5691 5690 5688 5687 5685 5684 5683 5681 5680 5679 5677 5675 5673 5671 5669 5668 5666 5665 5662 5659 5655 5652 5649 5647 5643 5641 5640 5639 5636 5634 5632 5629 5626 5623 5620 5617 5615 5612 5609 5606 5603 5601 5598 5595 5593 5590 5588 5586 5584 5582 5580 5578 5575 5573 5569 5566 5564 5562 5560 5557 5555 5552 5549 5547 5543 5540 5537 5534 5531 5527 5523 5521 5519
5696 5695 5693 5691 5690 5689 5688 5688 5687 5686 5684 5683 5682 5681 5679 5678 5676 5675 5674 5673 5671 5670 5668 5666 5664 5662 5659 5658 5656 5655 5652 5648 5644 5641 5639 5636 5633 5630 5629 5627 5625 5623 5620 5617 5614 5611 5609 5606 5604 5601 5598 5595 5592 5590 5587 5585 5583 5581 5579 5577 5575 5573 5571 5569 5567 5564 5560 5557 5554 5553 5551 5549 5547 5544 5542 5539 5536 5533 5530 5526 5522 5519 5516 5513 5512
5688 5687 5686 5684 5683 5682 5681 5680 5679 5677 5676 5674 5673 5671 5669 5668 5666 5665 5664 5663 5661 5659 5657 5655 5653 5651 5648 5645 5644 5644 5640 5636 5632 5630 5626 5624 5621 5618 5617 5615 5613 5611 5609 5606 5603 5600 5597 5595 5592 5590 5588 5585 5582 5579 5577 5575 5573 5571 5569 5568 5566 5564 5561 5560 5557 5554 5551 5548 5546 5544 5542 5540 5539 5537 5534 5531 5528 5524 5521 5518 5514 5511 5508 5506 5504
5679 5678 5677 5675 5673 5672 5671 5671 5670 5668 5666 5665 5663 5661 5659 5658 5655 5653 5653 5652 5649 5647 5645 5643 5641 5639 5636 5633 5631 5631 5628 5623 5620 5617 5614 5611 5609 5606 5605 5603 5601 5599 5597 5594 5591 5589 5587 5584 5582 5580 5578 5575 5572 5570 5568 5566 5564 5562 5560 5559 5557 5554 5551 5549 5547 5544 5542 5540 5537 5535 5533 5531 5530 5527 5524 5522 5519 5516 5513 5510 5507 5504 5501 5499 5497
5670 5669 5667 5665 5664 5662 5661 5661 5660 5658 5656 5655 5653 5652 5649 5647 5645 5642 5641 5640 5638 5635 5633 5631 5629 5626 5624 5621 5618 5618 5616 5612 5607 5605 5602 5599 5596 5595 5593 5591 5589 5588 5586 5583 5580 5578 5576 5574 5572 5570 5568 5566 5563 5560 5559 5557 5555 5552 5551 5548 5546 5544 5542 5539 5537 5535 5533 5531 5529 5527 5525 5522 5520 5517 5515 5512 5510 5507 5505 5503 5500 5497 5494 5492 5490
5661 5660 5658 5656 5654 5652 5651 5650 5649 5648 5646 5644 5643 5641 5639 5636 5634 5631 5629 5629 5628 5625 5621 5620 5618 5614 5612 5609 5606 5605 5604 5601 5596 5593 5591 5587 5585 5583 5581 5580 5578 5577 5575 5573 5570 5568 5566 5564 5562 5560 5558 5556 5554 5551 5549 5547 5545 5543 5541 5539 5537 5535 5532 5529 5527 5526 5523 5521 5519 5518 5516 5513 5511 5508 5505 5503 5501 5499 5497 5495 5492 5489 5486 5484 5483
5651 5650 5648 5646 5644 5642 5640 5639 5637 5636 5635 5633 5631 5629 5627 5625 5622 5620 5618 5616 5615 5614 5611 5608 5607 5604 5600 5597 5595 5592 5591 5589 5584 5581 5579 5576 5573 5572 5570 5568 5567 5565 5564 5562 5559 5558 5556 5554 5552 5550 5547 5545 5543 5541 5539 5537 5535 5534 5532 5530 5527 5524 5522 5519 5518 5516 5514 5512 5510 5508 5506 5504 5501 5499 5497 5495 5492 5490 5488 5487 5484 5481 5479 5477 5476
5642 5640 5638 5636 5634 5631 5629 5627 5626 5624 5623 5622 5621 5618 5615 5613 5611 5609 5607 5605 5603 5602 5599 5596 5595 5594 5589 5586 5583 5580 5578 5576 5573 5569 5566 5564 5561 5559 5558 5556 5554 5552 5551 5550 5548 5547 5545 5543 5542 5540 5537 5535 5533 5531 5530 5528 5526 5524 5522 5520 5518 5514 5511 5509 5507 5506 5505 5503 5501 5499 5497 5495 5492 5490 5488 5486 5484 5482 5481 5479 5477 5475 5473 5471 5469
5633 5631 5629 5626 5623 5620 5618 5616 5614 5612 5610 5609 5609 5607 5604 5601 5600 5598 5596 5594 5592 5590 5588 5584 5582 5582 5579 5575 5572 5569 5566 5564 5562 5559 5555 5553 5550 5547 5545 5544 5542 5539 5539 5538 5536 5535 5534 5533 5532 5530 5527 5525 5523 5521 5520 5518 5516 5514 5512 5510 5508 5505 5502 5500 5499 5498 5496 5493 5492 5490 5488 5485 5483 5481 5480 5478 5477 5476 5474 5472 5471 5469 5467 5465 5463
5623 5621 5618 5615 5613 5610 5607 5605 5602 5600 5598 5597 5596 5595 5592 5588 5587 5585 5583 5582 5580 5578 5576 5572 5570 5569 5567 5563 5560 5557 5554 5552 5550 5547 5544 5542 5539 5536 5534 5532 5530 5527 5527 5526 5524 5522 5521 5521 5520 5519 5516 5514 5512 5511 5510 5509 5507 5504 5502 5500 5498 5495 5493 5492 5491 5490 5486 5484 5482 5481 5479 5477 5475 5474 5473 5472 5470 5469 5467 5466 5464 5462 5460 5458 5456
5613 5611 5608 5605 5602 5599 5597 5595 5592 5589 5587 5585 5583 5582 5580 5577 5574 5571 5569 5567 5566 5565 5563 5559 5557 5556 5555 5552 5547 5544 5541 5539 5537 5534 5532 5529 5527 5525 5522 5521 5519 5516 5514 5514 5512 5510 5509 5509 5508 5507 5505 5503 5502 5501 5500 5499 5497 5494 5492 5490 5488 5485 5484 5483 5482 5480 5477 5475 5474 5472 5471 5470 5469 5468 5466 5465 5463 5462 5460 5459 5457 5456 5454 5452 5450
5603 5601 5597 5594 5592 5589 5587 5585 5582 5579 5576 5573 5571 5570 5568 5565 5563 5560 5556 5553 5552 5551 5550 5547 5544 5542 5542 5540 5536 5532 5528 5526 5524 5521 5519 5516 5514 5512 5510 5508 5507 5504 5502 5501 5500 5498 5497 5496 5496 5495 5494 5492 5491 5491 5490 5489 5487 5484 5483 5481 5478 5476 5475 5474 5472 5471 5469 5468 5467 5465 5464 5463 5462 5461 5459 5458 5456 5455 5453 5452 5450 5449 5447 5445 5443
5592 5590 5587 5584 5581 5579 5577 5575 5571 5568 5565 5561 5559 5557 5555 5553 5551 5548 5545 5541 5538 5537 5536 5533 5530 5528 5527 5525 5523 5519 5516 5513 5511 5508 5505 5503 5501 5499 5497 5496 5495 5493 5491 5489 5488 5487 5486 5484 5483 5483 5482 5481 5481 5480 5479 5478 5476 5474 5473 5472 5470 5468 5467 5465 5464 5463 5462 5461 5460 5458 5457 5456 5455 5453 5452 5450 5449 5448 5447 5446 5444 5442 5441 5439 5436
5582 5579 5576 5573 5571 5567 5565 5564 5561 5558 5554 5550 5547 5545 5542 5540 5539 5537 5533 5529 5526 5524 5522 5519 5517 5514 5512 5510 5509 5507 5504 5500 5498 5495 5492 5490 5489 5486 5485 5483 5482 5481 5479 5478 5476 5475 5474 5473 5472 5472 5472 5471 5470 5469 5468 5467 5465 5464 5463 5462 5461 5459 5458 5457 5456 5455 5454 5453 5452 5451 5450 5449 5448 5446 5445 5444 5443 5442 5441 5439 5438 5436 5434 5432 5429
5571 5568 5565 5562 5560 5557 5554 5552 5550 5547 5544 5540 5536 5534 5531 5527 5526 5525 5521 5517 5514 5512 5510 5507 5505 5501 5499 5497 5495 5493 5491 5488 5485 5482 5479 5477 5476 5474 5472 5471 5469 5468 5467 5466 5465 5464 5463 5462 5461 5461 5461 5461 5460 5459 5458 5456 5455 5454 5453 5452 5451 5450 5449 5449 5449 5448 5447 5446 5445 5444 5443 5442 5441 5440 5439 5438 5437 5436 5434 5433 5431 5429 5427 5424 5422
5560 5558 5555 5552 5550 5547 5544 5542 5540 5537 5534 5530 5526 5523 5520 5516 5514 5513 5509 5504 5502 5501 5498 5496 5493 5489 5486 5485 5482 5480 5479 5475 5471 5469 5467 5465 5463 5461 5460 5458 5457 5456 5455 5454 5453 5453 5452 5451 5451 5451 5451 5451 5451 5449 5448 5447 5447 5445 5444 5444 5443 5442 5442 5441 5441 5440 5439 5438 5437 5437 5436 5435 5434 5433 5432 5431 5430 5429 5428 5426 5423 5421 5419 5417 5414
5550 5548 5545 5542 5539 5536 5533 5531 5528 5525 5523 5520 5517 5513 5510 5505 5502 5501 5499 5493 5489 5487 5486 5484 5481 5477 5475 5473 5469 5468 5467 5464 5459 5456 5455 5453 5451 5450 5448 5447 5446 5445 5445 5444 5443 5443 5442 5442 5442 5443 5443 5443 5442 5441 5440 5440 5439 5438 5437 5437 5436 5435 5435 5434 5433 5433 5432 5432 5431 5430 5429 5428 5427 5426 5426 5425 5424 5422 5421 5419 5416 5414 5411 5408 5406
5539 5536 5533 5530 5528 5525 5522 5520 5517 5513 5510 5507 5505 5503 5500 5495 5490 5488 5487 5484 5479 5475 5473 5472 5469 5466 5463 5461 5458 5455 5455 5453 5449 5446 5444 5442 5441 5439 5438 5438 5437 5437 5436 5436 5435 5435 5434 5434 5435 5435 5435 5434 5434 5433 5433 5433 5432 5431 5431 5430 5429 5429 5428 5428 5427 5427 5426 5425 5424 5423 5422 5422 5421 5420 5419 5418 5416 5414 5413 5411 5408 5406 5404 5401 5398
5526 5524 5521 5517 5515 5512 5509 5507 5504 5501 5497 5493 5490 5488 5488 5486 5482 5476 5473 5471 5469 5465 5462 5460 5457 5454 5452 5450 5448 5445 5443 5442 5439 5437 5435 5433 5432 5431 5431 5430 5430 5429 5429 5429 5428 5428 5428 5428 5427 5427 5427 5427 5427 5426 5426 5425 5425 5424 5424 5423 5422 5422 5422 5421 5421 5420 5419 5418 5418 5417 5416 5416 5415 5414 5412 5410 5408 5406 5404 5402 5400 5399 5396 5394 5391
5512 5511 5508 5504 5502 5499 5496 5494 5491 5488 5484 5481 5477 5474 5472 5473 5472 5468 5462 5458 5457 5455 5451 5448 5446 5443 5441 5440 5438 5435 5433 5432 5430 5428 5426 5425 5424 5424 5424 5423 5423 5422 5422 5422 5421 5421 5421 5421 5420 5420 5420 5420 5420 5419 5419 5419 5418 5417 5417 5417 5416 5416 5415 5414 5413 5413 5412 5412 5411 5411 5410 5409 5408 5406 5404 5402 5400 5398 5396 5395 5393 5391 5389 5387 5384
5498 5497 5494 5491 5489 5487 5484 5481 5479 5476 5473 5469 5466 5463 5459 5457 5457 5457 5454 5449 5445 5443 5440 5437 5435 5433 5431 5429 5427 5425 5423 5421 5420 5419 5418 5417 5417 5417 5416 5415 5415 5414 5414 5414 5414 5413 5414 5414 5413 5413 5413 5413 5413 5412 5412 5412 5411 5411 5410 5410 5409 5409 5408 5407 5407 5406 5406 5406 5405 5404 5403 5401 5400 5398 5396 5394 5392 5390 5389 5388 5386 5384 5382 5379 5376
5486 5483 5481 5478 5476 5474 5471 5468 5466 5464 5461 5457 5454 5451 5448 5444 5442 5441 5441 5439 5436 5432 5429 5426 5424 5422 5421 5419 5417 5416 5414 5412 5410 5409 5409 5408 5408 5408 5408 5407 5406 5406 5406 5406 5406 5406 5406 5406 5406 5407 5407 5406 5406 5406 5405 5405 5404 5404 5403 5402 5402 5402 5401 5401 5401 5401 5400 5399 5398 5397 5395 5393 5391 5390 5388 5386 5385 5384 5382 5381 5379 5376 5374 5371 5369
5474 5471 5468 5465 5462 5460 5458 5455 5452 5450 5447 5444 5441 5438 5435 5433 5430 5427 5426 5426 5424 5422 5420 5416 5413 5412 5410 5409 5407 5406 5405 5403 5401 5400 5400 5400 5400 5400 5400 5400 5399 5399 5399 5399 5399 5399 5399 5399 5399 5400 5400 5400 5399 5398 5398 5398 5397 5396 5396 5396 5396 5396 5396 5395 5395 5394 5393 5392 5391 5389 5388 5386 5384 5382 5381 5379 5377 5376 5375 5373 5371 5369 5366 5364 5361
5462 5459 5457 5453 5449 5447 5444 5442 5438 5435 5433 5431 5428 5425 5422 5420 5418 5415 5414 5412 5411 5410 5409 5406 5403 5401 5400 5399 5397 5396 5395 5394 5393 5391 5391 5391 5392 5392 5392 5392 5392 5392 5392 5392 5392 5392 5392 5392 5392 5393 5393 5393 5392 5391 5391 5391 5390 5390 5389 5390 5390 5390 5390 5389 5389 5388 5386 5385 5384 5382 5380 5379 5377 5375 5373 5372 5370 5368 5367 5365 5363 5361 5359 5356 5354
5450 5447 5445 5441 5437 5434 5431 5429 5426 5422 5419 5417 5415 5413 5411 5409 5406 5404 5402 5400 5399 5399 5398 5396 5393 5392 5390 5389 5388 5387 5386 5385 5384 5383 5383 5384 5384 5384 5384 5385 5385 5384 5384 5384 5384 5384 5384 5385 5385 5385 5386 5386 5385 5385 5384 5384 5384 5384 5384 5384 5384 5384 5383 5383 5382 5381 5380 5378 5377 5375 5374 5372 5370 5368 5366 5364 5363 5361 5359 5358 5355 5353 5351 5349 5346
5437 5434 5431 5427 5424 5421 5419 5417 5414 5411 5407 5405 5403 5401 5399 5397 5395 5393 5391 5389 5388 5388 5387 5385 5384 5382 5381 5380 5379 5378 5378 5377 5376 5376 5376 5376 5377 5377 5377 5377 5377 5376 5376 5376 5376 5376 5377 5377 5378 5379 5379 5379 5378 5378 5378 5378 5378 5378 5378 5378 5377 5377 5377 5376 5375 5374 5373 5372 5370 5368 5367 5365 5362 5361 5359 5357 5356 5354 5352 5350 5348 5346 5343 5340 5337
5424 5422 5418 5414 5411 5409 5406 5404 5402 5399 5396 5394 5392 5390 5388 5386 5384 5382 5380 5379 5378 5378 5377 5375 5374 5373 5371 5371 5370 5370 5369 5369 5369 5369 5369 5370 5370 5370 5370 5370 5370 5369 5369 5368 5369 5369 5370 5371 5372 5372 5372 5372 5372 5372 5372 5372 5372 5372 5372 5371 5371 5371 5370 5370 5369 5368 5366 5365 5363 5361 5359 5357 5355 5354 5352 5351 5349 5347 5345 5343 5341 5338 5335 5332 5329
5412 5410 5406 5402 5399 5396 5394 5392 5390 5388 5385 5383 5381 5379 5378 5376 5374 5372 5371 5369 5369 5368 5367 5366 5365 5364 5363 5363 5362 5362 5362 5362 5362 5362 5363 5363 5363 5363 5363 5363 5363 5363 5362 5362 5363 5364 5365 5366 5366 5366 5366 5366 5366 5366 5366 5366 5366 5365 5365 5365 5365 5365 5364 5363 5362 5361 5359 5358 5356 5354 5352 5350 5349 5347 5346 5344 5342 5340 5338 5336 5333 5330 5327 5323 5319
5399 5397 5394 5391 5387 5384 5383 5380 5378 5376 5374 5372 5371 5369 5367 5366 5364 5363 5361 5360 5360 5359 5358 5358 5357 5356 5356 5356 5356 5356 5355 5355 5356 5356 5357 5357 5357 5357 5357 5356 5356 5357 5357 5358 5359 5360 5360 5360 5360 5360 5360 5360 5360 5360 5360 5360 5360 5359 5359 5359 5359 5358 5357 5356 5355 5354 5352 5350 5349 5347 5345 5344 5342 5341 5339 5337 5335 5332 5330 5328 5325 5321 5318 5314 5310
5386 5384 5382 5379 5376 5373 5371 5369 5367 5365 5364 5362 5361 5359 5357 5356 5355 5353 5352 5352 5351 5350 5350 5350 5349 5349 5349 5349 5349 5349 5349 5350 5350 5350 5350 5350 5350 5350 5350 5350 5351 5351 5352 5353 5354 5355 5355 5355 5354 5354 5354 5355 5354 5355 5354 5354 5354 5353 5353 5353 5352 5351 5350 5349 5348 5347 5345 5343 5342 5340 5339 5337 5336 5334 5332 5330 5327 5325 5322 5319 5316 5312 5309 5304 5300
5374 5371 5369 5367 5365 5362 5360 5358 5357 5355 5354 5352 5351 5349 5348 5347 5345 5344 5343 5343 5343 5343 5343 5343 5343 5343 5343 5343 5343 5343 5344 5344 5345 5345 5344 5344 5344 5344 5344 5344 5345 5346 5347 5348 5349 5349 5349 5349 5349 5349 5349 5349 5349 5349 5348 5348 5347 5347 5346 5346 5345 5344 5343 5342 5341 5339 5338 5337 5335 5333 5332 5330 5328 5326 5324 5322 5319 5316 5313 5310 5307 5303 5299 5295 5290
5362 5359 5357 5356 5354 5352 5350 5348 5346 5345 5344 5342 5341 5340 5339 5338 5337 5336 5336 5335 5335 5335 5336 5336 5337 5338 5338 5338 5338 5338 5338 5339 5339 5339 5338 5338 5337 5337 5338 5338 5340 5341 5342 5343 5344 5344 5344 5344 5344 5343 5343 5343 5343 5342 5342 5341 5340 5340 5339 5339 5338 5337 5336 5335 5334 5332 5331 5329 5328 5326 5324 5323 5321 5319 5317 5314 5311 5308 5305 5302 5298 5294 5290 5285 5281
5350 5348 5346 5344 5343 5341 5339 5337 5336 5335 5334 5333 5332 5331 5330 5329 5328 5328 5328 5328 5328 5329 5329 5330 5331 5332 5332 5332 5332 5333 5333 5333 5333 5332 5332 5332 5332 5332 5332 5333 5334 5336 5337 5338 5338 5338 5338 5338 5337 5337 5337 5337 5336 5335 5335 5334 5334 5333 5333 5332 5331 5330 5329 5328 5327 5325 5324 5322 5321 5319 5317 5315 5313 5311 5309 5306 5303 5300 5297 5293 5289 5284 5280 5276 5271
5338 5337 5335 5334 5332 5331 5330 5328 5326 5325 5324 5323 5322 5322 5321 5321 5320 5320 5320 5321 5322 5322 5323 5324 5325 5326 5326 5327 5327 5328 5327 5327 5327 5327 5326 5327 5327 5327 5328 5328 5330 5331 5331 5332 5332 5332 5332 5331 5331 5331 5331 5330 5330 5329 5329 5328 5327 5327 5326 5325 5324 5323 5322 5321 5320 5318 5317 5315 5313 5312 5310 5308 5306 5303 5301 5298 5295 5292 5288 5284 5279 5275 5271 5266 5262
5327 5326 5324 5323 5322 5321 5320 5319 5317 5316 5315 5314 5313 5313 5313 5313 5313 5313 5314 5315 5316 5317 5318 5319 5319 5320 5321 5321 5322 5322 5322 5321 5321 5321 5321 5321 5322 5322 5323 5323 5324 5325 5325 5326 5325 5325 5325 5325 5325 5325 5325 5324 5324 5323 5322 5322 5321 5320 5319 5319 5318 5316 5315 5314 5313 5311 5310 5308 5306 5304 5303 5300 5298 5296 5293 5290 5287 5283 5279 5275 5270 5266 5262 5258 5254
5317 5316 5314 5313 5312 5312 5311 5310 5308 5307 5307 5306 5305 5305 5305 5305 5306 5306 5308 5309 5310 5311 5312 5313 5313 5314 5315 5316 5316 5316 5316 5316 5316 5316 5316 5316 5317 5317 5318 5318 5319 5319 5319 5319 5319 5319 5319 5319 5319 5319 5319 5318 5318 5317 5316 5316 5315 5314 5313 5312 5311 5310 5309 5307 5306 5304 5303 5301 5299 5297 5295 5293 5290 5287 5285 5282 5278 5274 5270 5265 5261 5257 5253 5250 5246
5307 5306 5305 5304 5303 5302 5301 5301 5300 5299 5298 5298 5298 5298 5298 5298 5299 5301 5302 5303 5304 5305 5306 5307 5308 5309 5309 5310 5311 5311 5311 5310 5311 5311 5311 5311 5312 5312 5312 5313 5313 5313 5314 5314 5313 5313 5313 5313 5313 5313 5313 5312 5312 5311 5310 5309 5308 5308 5306 5305 5304 5303 5302 5300 5299 5297 5296 5294 5292 5290 5287 5285 5282 5279 5276 5273 5269 5265 5260 5256 5253 5249 5246 5242 5239
5297 5296 5295 5295 5294 5293 5292 5291 5291 5290 5290 5290 5290 5290 5291 5292 5293 5295 5296 5297 5298 5299 5300 5301 5302 5303 5304 5304 5305 5305 5305 5305 5305 5305 5306 5306 5306 5307 5307 5307 5307 5308 5308 5308 5308 5308 5307 5307 5307 5307 5307 5306 5305 5305 5304 5303 5302 5301 5300 5299 5297 5296 5295 5294 5292 5290 5288 5287 5284 5282 5279 5276 5273 5270 5267 5263 5259 5255 5251 5248 5245 5242 5238 5235 5231
5289 5287 5286 5286 5285 5284 5284 5283 5283 5282 5282 5282 5283 5283 5284 5285 5287 5289 5290 5291 5292 5294 5295 5295 5296 5297 5298 5299 5299 5300 5300 5300 5300 5300 5301 5301 5301 5301 5301 5301 5302 5302 5302 5302 5302 5302 5302 5301 5301 5301 5300 5300 5299 5298 5297 5296 5295 5294 5293 5292 5291 5290 5288 5287 5285 5283 5281 5279 5276 5273 5270 5267 5264 5261 5257 5254 5250 5246 5243 5240 5237 5234 5230 5227 5224